Voltar ao catálogo

KUIPER-00662

AtivoComunicaçõesLEO
NORAD 69791·PAYLOAD·🇺🇸 United States

Lançado Jul 2, 2026 de Cape Canaveral Space Force Station

Loading…

Próximas Passagens (próximas 24 horas)

TLE

AtualizadoSource: CelesTrak SupGP

Época: Sep 14, 2026, 22:35 UTC

1 69791C 26151AE  26257.94141204 -.00003538  00000+0 -46346-3 0  2577
2 69791  51.9004 261.2701 0000174 123.0282 124.1568 14.79900289    19

Acompanhe KUIPER-00662 em tempo real com AllMySat

Download on the App Store